• în România
  • Lista ţărilor
  • Pe 7 zile
  • Temperatura apei
  • Hartă satelitară
  • Meteo pe hartă
  • Widget-uri
  • user-avatar
    Intrare

    Meteo pe oră la Albany

    Astăzi, 15 Noiembrie, Joi

    Timp Temperatura Precipitaţii Vânt Presiune Umiditate
    00:00 +13°C° 0 mm 5 m/s 760 mmHg 88%
    01:00 +13°C° 0 mm 4 m/s 760 mmHg 89%
    02:00 +13°C° 0 mm 4 m/s 760 mmHg 90%
    03:00 +13°C° 0 mm 4 m/s 760 mmHg 91%
    04:00 +13°C° 0 mm 3 m/s 759 mmHg 93%
    05:00 +12°C° 0 mm 3 m/s 759 mmHg 94%
    06:00 +16°C° 0 mm 2 m/s 759 mmHg 84%
    07:00 +19°C° 0 mm 1 m/s 759 mmHg 75%
    08:00 +22°C° 0 mm 1 m/s 760 mmHg 65%
    09:00 +23°C° 0 mm 2 m/s 760 mmHg 62%
    10:00 +24°C° 0 mm 3 m/s 760 mmHg 60%
    11:00 +25°C° 0 mm 4 m/s 760 mmHg 57%
    12:00 +25°C° 0 mm 5 m/s 760 mmHg 59%
    13:00 +23°C° 0 mm 5 m/s 760 mmHg 60%
    14:00 +23°C° 0 mm 6 m/s 760 mmHg 62%
    15:00 +22°C° 0 mm 6 m/s 760 mmHg 65%
    16:00 +21°C° 0 mm 6 m/s 761 mmHg 67%
    17:00 +19°C° 0 mm 5 m/s 761 mmHg 70%
    18:00 +17°C° 0 mm 5 m/s 761 mmHg 73%
    19:00 +16°C° 0 mm 5 m/s 762 mmHg 77%
    20:00 +15°C° 0 mm 5 m/s 762 mmHg 80%
    21:00 +15°C° 0 mm 5 m/s 762 mmHg 82%
    22:00 +15°C° 0 mm 5 m/s 762 mmHg 85%
    23:00 +14°C° 0 mm 5 m/s 762 mmHg 87%

    Mâine, 16 Noiembrie, Vineri

    Timp Temperatura Precipitaţii Vânt Presiune Umiditate
    00:00 +14°C° 0 mm 5 m/s 762 mmHg 87%
    01:00 +14°C° 0 mm 5 m/s 762 mmHg 88%
    02:00 +14°C° 0 mm 4 m/s 761 mmHg 88%
    03:00 +14°C° 0 mm 4 m/s 761 mmHg 89%
    04:00 +14°C° 0 mm 4 m/s 762 mmHg 89%
    05:00 +14°C° 0 mm 4 m/s 762 mmHg 90%
    06:00 +15°C° 0 mm 5 m/s 762 mmHg 84%
    07:00 +17°C° 0 mm 5 m/s 762 mmHg 77%
    08:00 +19°C° 0 mm 6 m/s 762 mmHg 71%
    09:00 +20°C° 0 mm 6 m/s 761 mmHg 68%
    10:00 +21°C° 0 mm 6 m/s 761 mmHg 64%
    11:00 +22°C° 0 mm 7 m/s 761 mmHg 61%
    12:00 +22°C° 0 mm 7 m/s 760 mmHg 63%
    13:00 +22°C° 0 mm 7 m/s 760 mmHg 65%
    14:00 +22°C° 0 mm 7 m/s 759 mmHg 67%
    15:00 +21°C° 0.1 mm 7 m/s 759 mmHg 71%
    16:00 +20°C° 0.1 mm 7 m/s 758 mmHg 75%
    17:00 +20°C° 0.1 mm 7 m/s 758 mmHg 79%
    18:00 +19°C° 0.2 mm 6 m/s 758 mmHg 82%
    19:00 +19°C° 0.2 mm 6 m/s 758 mmHg 85%
    20:00 +17°C° 0.2 mm 6 m/s 758 mmHg 88%
    21:00 +17°C° 0.1 mm 6 m/s 758 mmHg 89%
    22:00 +17°C° 0.1 mm 5 m/s 757 mmHg 90%
    23:00 +17°C° 0.1 mm 5 m/s 757 mmHg 90%

    Poimâine, 17 Noiembrie, Sâmbătă

    Timp Temperatura Precipitaţii Vânt Presiune Umiditate
    00:00 +17°C° 0.1 mm 5 m/s 756 mmHg 92%
    01:00 +17°C° 0.1 mm 4 m/s 756 mmHg 94%
    02:00 +17°C° 0.1 mm 3 m/s 755 mmHg 95%
    03:00 +17°C° 0 mm 3 m/s 754 mmHg 96%
    04:00 +17°C° 0 mm 3 m/s 754 mmHg 96%
    05:00 +17°C° 0 mm 3 m/s 753 mmHg 96%
    06:00 +18°C° 0 mm 3 m/s 753 mmHg 92%
    07:00 +19°C° 0 mm 2 m/s 753 mmHg 87%
    08:00 +21°C° 0 mm 2 m/s 752 mmHg 82%
    09:00 +22°C° 0.1 mm 3 m/s 752 mmHg 75%
    10:00 +25°C° 0.1 mm 3 m/s 752 mmHg 69%
    11:00 +26°C° 0.1 mm 3 m/s 752 mmHg 62%
    12:00 +27°C° 0 mm 4 m/s 751 mmHg 61%
    13:00 +27°C° 0 mm 4 m/s 751 mmHg 60%
    14:00 +27°C° 0 mm 5 m/s 751 mmHg 59%
    15:00 +26°C° 0.1 mm 5 m/s 751 mmHg 62%
    16:00 +23°C° 0.1 mm 6 m/s 751 mmHg 66%
    17:00 +22°C° 0.1 mm 6 m/s 752 mmHg 69%
    18:00 +21°C° 0 mm 6 m/s 752 mmHg 75%
    19:00 +19°C° 0 mm 6 m/s 753 mmHg 81%
    20:00 +16°C° 0 mm 5 m/s 753 mmHg 87%
    21:00 +16°C° 0 mm 5 m/s 753 mmHg 89%
    22:00 +15°C° 0 mm 5 m/s 753 mmHg 90%
    23:00 +15°C° 0 mm 5 m/s 754 mmHg 91%

    18 Noiembrie, Duminică

    Timp Temperatura Precipitaţii Vânt Presiune Umiditate
    00:00 +15°C° 0 mm 5 m/s 753 mmHg 90%
    01:00 +15°C° 0 mm 4 m/s 753 mmHg 88%
    02:00 +15°C° 0 mm 4 m/s 753 mmHg 87%
    03:00 +15°C° 0 mm 4 m/s 753 mmHg 87%
    04:00 +15°C° 0 mm 4 m/s 753 mmHg 87%
    05:00 +14°C° 0 mm 4 m/s 754 mmHg 87%
    06:00 +15°C° 0 mm 4 m/s 754 mmHg 81%
    07:00 +18°C° 0 mm 4 m/s 754 mmHg 75%
    08:00 +19°C° 0 mm 4 m/s 755 mmHg 69%
    09:00 +20°C° 0 mm 4 m/s 755 mmHg 62%
    10:00 +22°C° 0 mm 5 m/s 754 mmHg 55%
    11:00 +23°C° 0 mm 5 m/s 754 mmHg 48%
    12:00 +23°C° 0 mm 5 m/s 754 mmHg 49%
    13:00 +23°C° 0 mm 6 m/s 754 mmHg 50%
    14:00 +23°C° 0 mm 6 m/s 753 mmHg 51%
    15:00 +22°C° 0 mm 6 m/s 754 mmHg 57%
    16:00 +21°C° 0 mm 7 m/s 754 mmHg 63%
    17:00 +20°C° 0 mm 7 m/s 754 mmHg 69%
    18:00 +17°C° 0.1 mm 6 m/s 755 mmHg 75%
    19:00 +16°C° 0.1 mm 5 m/s 755 mmHg 81%
    20:00 +15°C° 0.1 mm 5 m/s 756 mmHg 87%
    21:00 +15°C° 0.2 mm 5 m/s 756 mmHg 88%
    22:00 +14°C° 0.2 mm 5 m/s 757 mmHg 88%
    23:00 +14°C° 0.2 mm 5 m/s 757 mmHg 89%

    19 Noiembrie, Luni

    Timp Temperatura Precipitaţii Vânt Presiune Umiditate
    00:00 +14°C° 0.2 mm 5 m/s 757 mmHg 88%
    01:00 +13°C° 0.2 mm 5 m/s 757 mmHg 88%
    02:00 +13°C° 0.2 mm 5 m/s 757 mmHg 87%
    03:00 +13°C° 0.1 mm 6 m/s 757 mmHg 84%
    04:00 +11°C° 0.1 mm 6 m/s 757 mmHg 81%
    05:00 +11°C° 0.1 mm 6 m/s 758 mmHg 79%
    06:00 +11°C° 0 mm 6 m/s 758 mmHg 74%
    07:00 +13°C° 0 mm 6 m/s 759 mmHg 69%
    08:00 +13°C° 0 mm 6 m/s 760 mmHg 64%
    09:00 +14°C° 0 mm 6 m/s 760 mmHg 60%
    10:00 +14°C° 0 mm 6 m/s 760 mmHg 57%
    11:00 +14°C° 0 mm 6 m/s 760 mmHg 53%
    12:00 +15°C° 0 mm 6 m/s 760 mmHg 52%
    13:00 +15°C° 0 mm 6 m/s 760 mmHg 50%
    14:00 +15°C° 0 mm 6 m/s 760 mmHg 49%
    15:00 +15°C° 0.1 mm 6 m/s 760 mmHg 51%
    16:00 +15°C° 0.1 mm 6 m/s 760 mmHg 53%
    17:00 +15°C° 0.1 mm 7 m/s 760 mmHg 56%
    18:00 +14°C° 0.1 mm 7 m/s 761 mmHg 62%
    19:00 +12°C° 0.1 mm 7 m/s 761 mmHg 68%
    20:00 +11°C° 0.1 mm 7 m/s 762 mmHg 74%
    21:00 +10°C° 0.1 mm 7 m/s 762 mmHg 74%
    22:00 +10°C° 0.1 mm 7 m/s 762 mmHg 74%
    23:00 +10°C° 0.1 mm 7 m/s 763 mmHg 73%

    20 Noiembrie, Marţi

    Timp Temperatura Precipitaţii Vânt Presiune Umiditate
    00:00 +9°C° 0 mm 7 m/s 763 mmHg 72%
    01:00 +9°C° 0 mm 7 m/s 763 mmHg 71%
    02:00 +9°C° 0 mm 7 m/s 763 mmHg 69%
    03:00 +9°C° 0 mm 7 m/s 763 mmHg 68%
    04:00 +8°C° 0 mm 6 m/s 763 mmHg 67%
    05:00 +8°C° 0 mm 6 m/s 764 mmHg 66%
    06:00 +9°C° 0 mm 7 m/s 764 mmHg 63%
    07:00 +10°C° 0 mm 7 m/s 765 mmHg 60%
    08:00 +11°C° 0 mm 7 m/s 765 mmHg 57%
    09:00 +11°C° 0 mm 7 m/s 765 mmHg 56%
    10:00 +11°C° 0 mm 7 m/s 765 mmHg 54%
    11:00 +12°C° 0 mm 7 m/s 765 mmHg 52%
    12:00 +12°C° 0 mm 7 m/s 765 mmHg 52%
    13:00 +12°C° 0 mm 7 m/s 765 mmHg 52%
    14:00 +14°C° 0 mm 7 m/s 765 mmHg 52%
    15:00 +12°C° 0.1 mm 7 m/s 765 mmHg 54%
    16:00 +13°C° 0.1 mm 6 m/s 765 mmHg 57%
    17:00 +11°C° 0.1 mm 6 m/s 765 mmHg 60%
    18:00 +11°C° 0.1 mm 6 m/s 765 mmHg 63%
    19:00 +11°C° 0.1 mm 6 m/s 765 mmHg 67%
    20:00 +10°C° 0.1 mm 6 m/s 766 mmHg 70%
    21:00 +10°C° 0.1 mm 6 m/s 765 mmHg 71%
    22:00 +10°C° 0.1 mm 5 m/s 765 mmHg 73%
    23:00 +10°C° 0.1 mm 5 m/s 765 mmHg 74%
    Arată mai mult